This is the latest recevied weather packets stored in our database for station/object KC0CAU. If no packets are shown the sender has not sent any weather packets the latest 10 day(s).
| Time | Temp. | Humidity | Pressure | Rain* | Wind** | Luminosity | Snow |
|---|---|---|---|---|---|---|---|
| 1777906863 | 5.56° C | 61% | 1008.4 hPa | 0 mm | - | - | - |
| 1777905947 | 5.56° C | 61% | 1008.2 hPa | 0 mm | - | - | - |
| 1777905045 | 5.56° C | 60% | 1008 hPa | 0 mm | - | - | - |
| 1777904147 | 5.56° C | 58% | 1007.7 hPa | 0 mm | - | - | - |
| 1777903241 | 5.56° C | 59% | 1007.6 hPa | 0 mm | - | - | - |
| 1777902349 | 6.11° C | 59% | 1007.3 hPa | 0 mm | - | - | - |
| 1777901438 | 5.56° C | 62% | 1007.2 hPa | 0 mm | - | - | - |
| 1777900538 | 5.56° C | 64% | 1006.9 hPa | 0 mm | - | - | - |
| 1777899632 | 5.56° C | 66% | 1006.8 hPa | 0 mm | - | - | - |
| 1777898730 | 5.56° C | 66% | 1006.5 hPa | 0 mm | - | - | - |
| 1777897827 | 5.56° C | 64% | 1005.9 hPa | 0 mm | - | - | - |
| 1777896922 | 6.11° C | 63% | 1005.6 hPa | 0 mm | - | - | - |
| 1777896019 | 6.11° C | 62% | 1005.4 hPa | 0 mm | - | - | - |
| 1777895132 | 6.67° C | 60% | 1005 hPa | 0 mm | - | - | - |
| 1777894214 | 6.67° C | 59% | 1004.7 hPa | 0 mm | - | - | - |
| 1777893311 | 7.22° C | 58% | 1004.6 hPa | 0 mm | - | - | - |
| 1777892408 | 7.22° C | 56% | 1004.4 hPa | 0 mm | - | - | - |
| 1777891506 | 7.78° C | 56% | 1004.4 hPa | 0 mm | - | - | - |
| 1777890602 | 7.78° C | 56% | 1004 hPa | 0 mm | - | - | - |
| 1777889701 | 8.33° C | 55% | 1003.8 hPa | 0 mm | - | - | - |
| 1777888862 | 8.89° C | 57% | 1003.9 hPa | 0 mm | - | - | - |
| 1777887956 | 9.44° C | 56% | 1003.7 hPa | 0 mm | - | - | - |
| 1777887053 | 9.44° C | 57% | 1003.3 hPa | 0 mm | - | - | - |
| 1777886151 | 9.44° C | 63% | 1003 hPa | 0 mm | - | - | - |
| 1777885248 | 8.89° C | 69% | 1003.2 hPa | 0 mm | - | - | - |
* Rain latest hour (hover to see other rain measurements)
** Current wind speed in m/s (hover to see current wind gust speed)